Torna al catalogo

LEMUR 2 KARENDARRELL

AttivoMeteoSSO
NORAD 64841·PAYLOAD·🇺🇸 United States

Lanciato Jun 23, 2025 da Vandenberg Space Force Base

Loading…

Prossimi Passaggi (prossime 24 ore)

TLE

AggiornatoSource: Space-Track

Epoca: Sep 14, 2026, 14:22 UTC

1 64841U 25135BU  26257.59914243  .00006352  00000-0  49889-3 0  9995
2 64841  97.7863  13.8136 0010244 269.4198  90.5852 15.01221190 67427

Traccia LEMUR 2 KARENDARRELL in tempo reale con AllMySat

Download on the App Store